Regional Weather Roundup
Issued by NWS

Home | Current Version | Previous Version | Text Only | Print | Product List | Glossary Off
Versions: 1 2 3 4 5 6 7 8 9 10 11 12 13 14 15 16 17 18 19 20 21 22 23 24 25 26 27 28 29 30 31 32 33 34 35 36 37 38 39 40 41 42 43 44 45 46 47 48 49 50

111
ASUS43 KLSX 301007
RWRMO

WEATHER SUMMARY FOR MISSOURI
NATIONAL WEATHER SERVICE SPRINGFIELD MO
500 AM CDT MON MAY 30 2016

NOTE: "FAIR" INDICATES FEW OR NO CLOUDS BELOW 12,000 FEET WITH NO
       SIGNIFICANT WEATHER AND/OR OBSTRUCTIONS TO VISIBILITY.
       CURRENT SKY AND/OR WEATHER CONDITIONS ARE NOT AVAILABLE FOR
       CHILLICOTHE AND FARMINGTON.

MOZ001>031-035>038-043-044-053-054-301100-
...NORTHERN AND WESTERN MISSOURI...

CITY           SKY/WX    TMP DP  RH WIND       PRES   REMARKS
KANSAS CTY INT PTCLDY    65  60  84 S5        30.03R
KANSAS C DTWN  CLEAR     65  62  90 N3        30.01S
LEE`S SUMMIT   CLEAR     66  62  87 CALM      30.03S
ST JOSEPH      CLEAR     61  59  93 N5        30.01F
CHILLICOTHE      N/A     62  61  96 CALM      30.03S
KIRKSVILLE     CLEAR     66  60  81 SW5       30.03S

$$
MOZ066>068-077>081-088>096-101>105-301100-
...SOUTHWEST MISSOURI...

CITY           SKY/WX    TMP DP  RH WIND       PRES   REMARKS
SPRINGFIELD    CLEAR     65  60  84 CALM      30.06R
JOPLIN         MOCLDY    63  62  97 CALM      30.05R

$$
MOZ032>034-039>042-045>050-055>058-069>072-301100-
...CENTRAL MISSOURI...

CITY           SKY/WX    TMP DP  RH WIND       PRES   REMARKS
COLUMBIA       CLEAR     65  63  93 S6        30.05R
JEFFERSON CITY CLEAR     64  63  96 E5        30.05R
ROLLA          CLEAR     63  60  90 S7        30.05S
SEDALIA        CLEAR     67  62  84 S6        30.05S
WHITEMAN AFB   CLEAR     65  65 100 S6        30.02S
WARRENSBURG    CLEAR     61  59  94 CALM      30.03S

$$
MOZ051-052-059>065-301100-
...EAST CENTRAL MISSOURI...

CITY           SKY/WX    TMP DP  RH WIND       PRES   REMARKS
ST LOUIS INTL  PTCLDY    69  60  73 CALM      30.05S
SPIRIT OF STL  CLEAR     62  61  96 CALM      30.04R
ST CHARLES     PTCLDY    64  64 100 CALM      30.04R

$$
MOZ072>076-082>087-097>100-106>115-301100-
...SOUTH CENTRAL AND SOUTHEAST MISSOURI...

CITY           SKY/WX    TMP DP  RH WIND       PRES   REMARKS
CAPE GIRARDEAU CLEAR     62  62 100 CALM      30.05R FOG
FARMINGTON     CLEAR     59  58  96 CALM      30.09R
POPLAR BLUFF   CLEAR     65  62  90 N3        30.04R
WEST PLAINS    CLEAR     61  58  90 CALM      30.08S

$$



USA.gov is the U.S. government's official web portal to all federal, state and local government web resources and services.